www.pogodaiklimat.ru

ПОГОДА в Нурвике, AK

  • Прогноз погоды в Нурвике
  • Монитор погоды в Нурвике
  • Климат в Нурвике

АРХИВ ПОГОДЫ в Нурвике

Время (UTC), дата Ветер
(напр.,м/с)
 
Видим.   Явления Облачность Т
(С)
Тd
(С)
f
(%)
Тe
(С)
Тes
(С)
Комфортность

P
(гПа)

Po
(гПа)
Тmin
(С)
Tmax
(С)
R
(мм)
SD
(см)
20:56 22.03 В  13  14 км    8/0 3000 м
[средняя] 
-0.6  -4.4  75  -10  -10    1000.6  998.5         
21:56 22.03 В  13  16 км    8/0 2100 м
[средняя] 
+0.6  -5.6  63  -8  -8    1000.7  998.5         
22:56 22.03 СВ  11
{18} 
16 км    8/8 1200 м  +2.2  -4.4  62  -5  -5    1000.7  998.5  -3.3  +2.2     
23:31 22.03 В  11
{14} 
14 км    10/10 1230 м  +3.0  -3.0  65  -5  -5      998.2         
23:56 22.03 В  11  14 км    8/8 1170 м  +2.2  -3.3  67  -6  -6    1000.5  998.2         
00:56 23.03 В  10  16 км    8/0 3000 м
[средняя] 
+1.7  -2.8  72  -6  -6    1000.6  998.5         
01:56 23.03 СВ  16 км    ясно  +1.7  -3.9  66  -5  -5    1001.4  999.2         
02:56 23.03 В  16 км    ясно  +2.2  -3.9  64  -5  -5    1001.7  999.6         
03:56 23.03 СВ  8
{11} 
16 км    ясно  +1.1  -4.4  67  -6  -6    1002.1  999.9         
04:56 23.03 В  10
{14} 
16 км    ясно  +2.2  -4.4  62  -5  -5    1002.5  1000.2  0.0  +2.8     
05:56 23.03 В  16 км    ясно  -0.6  -4.4  75  -9  -9    1003.4  1001.3         
06:56 23.03 В  10  16 км    ясно  -1.1  -4.4  78  -10  -10    1003.7  1001.6         
07:56 23.03 В  11  16 км    ясно  -1.1  -5.0  75  -10  -10    1004.0  1001.9         
08:56 23.03 В  10  16 км    ясно  -1.7  -5.0  78  -11  -11    1004.6  1002.6         
09:56 23.03 В  12  16 км    ясно  -1.1  -4.4  78  -11  -11    1004.8  1002.6         
10:56 23.03 СВ  12  16 км    ясно  -1.1  -4.4  78  -11  -11    1004.8  1002.6  -1.7  +2.2     
11:56 23.03 СВ  10  16 км    ясно  -1.1  -5.0  75  -10  -10    1004.8  1002.6         
12:56 23.03 СВ  16 км    ясно  -0.6  -4.4  75  -8  -8    1005.1  1002.9         
13:56 23.03 СВ  10  16 км    ясно  -0.6  -4.4  75  -9  -9    1004.9  1002.6         
14:56 23.03 В  10  16 км    ясно  -0.6  -4.4  75  -9  -9    1005.1  1002.9         
15:56 23.03 В  16 км    ясно  -0.6  -4.4  75  -9  -9    1005.5  1003.3         
16:56 23.03 В  16 км    ясно  -0.6  -4.4  75  -9  -9    1005.6  1003.6  -1.1  0.0     
17:56 23.03 В  16 км    5/0 2400 м
[средняя] 
0.0  -3.9  75  -7  -7    1005.9  1003.6         
18:56 23.03 В  16 км    10/0 2850 м
[средняя] 
0.0  -3.9  75  -7  -7    1006.2  1004.0         
19:56 23.03 В  16 км    10/0 2100 м
[средняя] 
0.0  -3.9  75  -8  -8    1006.3  1004.3         
20:56 23.03 В  16 км    10/0 2250 м
[средняя] 
+0.6  -3.9  72  -7  -7    1006.4  1004.3         
21:56 23.03 В  16 км    10/0 2250 м
[средняя] 
+1.1  -3.9  69  -7  -7    1006.3  1004.0         
22:56 23.03 В  16 км    ясно  +1.1  -3.3  72  -5  -4    1006.6  1004.3  -0.6  +1.7     
23:56 23.03 В  16 км    ясно  +1.7  -3.3  69  -5  -5    1006.4  1004.3         
00:56 24.03 В  16 км    8/0 2700 м
[средняя] 
+1.7  -2.8  72  -5  -5    1006.6  1004.3         
01:56 24.03 В  16 км    10/0 2100 м
[средняя] 
+1.7  -2.8  72  -4  -4    1006.9  1004.6         
02:56 24.03 В  16 км    8/0 2100 м
[средняя] 
+0.6  -3.3  75  -4  -4    1007.0  1005.0         
03:56 24.03 В  16 км    ясно  +0.6  -5.0  66  -6  -6    1007.5  1005.3         
04:56 24.03 В  16 км    ясно  -0.6  -5.0  72  -8  -8    1007.7  1005.6  -0.6  +1.7     
05:56 24.03 В  16 км    ясно  -1.7  -5.0  78  -9  -9    1008.3  1006.0         
06:56 24.03 В  16 км    10/0 3000 м
[средняя] 
-1.1  -3.9  81  -8  -8    1008.5  1006.3         
07:56 24.03 В  16 км    10/0 2250 м
[средняя] 
-0.6  -3.9  78  -8  -8    1008.7  1006.7         
08:56 24.03 СВ  16 км  неопределенные осадки  10/10 1950 м  0.0  -3.9  75  -8  -8    1008.9  1006.7         
09:56 24.03 В  10  16 км    10/10 1500 м  +1.7  -2.8  72  -6  -6    1008.9  1006.7         
10:56 24.03 В  16 км    10/10 1440 м  0.0  -2.8  81  -8  -8    1009.4  1007.3  -1.7  +2.2     
11:56 24.03 В  16 км    10/10 1170 м  +1.1  -2.2  79  -6  -6    1009.3  1007.3         
12:56 24.03 В  16 км    10/10 1170 м  +1.7  -2.2  75  -5  -5    1009.4  1007.3         
13:56 24.03 ЮВ  10  16 км    10/8 1110 м
[средняя] 
+1.7  -2.2  75  -6  -6    1009.3  1007.0         
14:56 24.03 ЮВ  16 км    10/10 1380 м  +1.7  -2.2  75  -6  -6    1009.4  1007.3         
15:56 24.03 В  16 км    10/0 3300 м
[средняя] 
+1.1  -2.8  75  -6  -6    1009.4  1007.3         
16:56 24.03 ЮВ  10  16 км    10/0 2400 м
[средняя] 
+0.6  -2.8  78  -8  -8    1009.1  1007.0  -0.6  +1.7     
17:56 24.03 ЮВ  16 км    10/8 1500 м
[средняя] 
+0.6  -2.2  81  -7  -7    1009.2  1007.0         
18:56 24.03 В  16 км    10/10 1500 м  +1.1  -2.2  79  -6  -6    1009.1  1007.0         

 

Местоположение метеостанции Robert (Bob) Curtis Memorial Airport: широта 66.8175 долгота -161.0223 высота над уровнем моря 17 м.

В архиве по умолчанию представлена погода в Нурвике за последние 1-2 суток. Обновление информации о фактической погоде в базе происходит ежечасно! Архивные данные за месяц целиком и за предыдущие месяцы Вы можете получить, выбрав интересующий диапазон дат из раскрывающегося списка и нажав кнопку "Ввод!".

Внимание! Архив погоды МЕТАР в базе сайта хранится не более 60 дней. Нет смысла пытаться выбрать более раннюю дату.

Внимание! Время в таблицах - всемирное. Для получения местного времени необходимо прибавить поправку, которая в Нурвике равна -9 ч.

Ветер - указаны скорость ветра в м/с и направление, откуда дует ветер: С - северный, СВ - северо-восточный, В - восточный, ЮВ - юго-восточный, Ю - южный, ЮЗ - юго-западный, З - западный, СЗ - северо-западный.
Видимость - горизонтальная дальность видимости в метрах или километрах. При видимости от 1 до 10 км при отсутствии осадков обычно наблюдается дымка, при ухудшении видимости до 1 км и менее - туман. В сухую погоду видимость может ухудшаться дымом, пылью или мглою.
Атмосферные явления - указаны явления, наблюдавшиеся в указанный момент времени.
Облачность - указаны через наклонную черту верхняя и нижняя облачность в баллах и высота нижней границы облаков в метрах. Внимание: облачность, как и прочие метеорологические величины в США измеряются автоматическими метеостанциями. Указанные значения в баллах носят условный характер и показывают процент времени, в течение которого, в среднем, лазерный луч высотомера отражался от облаков обратно.
T - Температура воздуха - температура, измеренная на высоте 2 м над землей.
Td - Температура точки росы - температура, при понижении до которой содержащийся в воздухе водяной пар достигнет насыщения.
f - Относительная влажность воздуха - влажноcть воздуха, измеренная на высоте 2 м над землей.
Te - Эффективная температура - температура, которую ощущает одетый по сезону человек в тени. Характеристика душности погоды. При расчете учитывается влияние влажности воздуха и скорости ветра на теплоощущения человека.
Tes - Эффективная температура на солнце - температура, которую ощущает человек, с поправкой на солнечный нагрев. Характеристика знойности погоды. Зависит от высоты солнца над горизонтом, облачности и скорости ветра. Ночью, в пасмурную погоду, а также при ветре 12 м/с и более поправка равна нулю.
P - Атмосферное давление - приведенное к уровню моря атмосферное давление.
Po - Атмосферное давление - измеренное на уровне метеостанции атмосферное давление.
Tmin - Минимальная температура - минимум температуры воздуха на высоте 2 м над землей.
Tmax - Максимальная температура - максимум температуры воздуха на высоте 2 м над землей.
R - Количество осадков - Количество выпавших осадков за 3 или 6 часов, мм.
SD - Снежный покров - Высота снежного покрова, см.